User: anonymous   Login
Location: Unspecified
(0.0000°N, 0.0000°E)
Time: 11:58:58
(UTC+00:00)
Language:

USA 202 - Orbit

View from above orbital plane
View from above orbital plane
View from above satellite
View from above satellite

Ground track
Ground track

The orbit data is extracted from the following two-line orbital elements,

1 33490U 09001A   17256.97988603 0.00000000  00000-0  00000-0 0    03
2 33490   4.9203  29.9118 0008000   4.6819 355.3536  1.00270000    05
Epoch (UTC): 13 September 2017 23:31:02
Eccentricity: 0.0008000
inclination: 4.9203°
perigee height: 35753 km
apogee height: 35820 km
right ascension of ascending node: 29.9118°
argument of perigee: 4.6819°
revolutions per day: 1.00270000
mean anomaly at epoch: 355.3536°
orbit number at epoch: 0

The dashed part of the orbit path shows where the satellite is in the earth's shadow,  

DLR